Regional Weather Roundup
Issued by NWS Grand Forks, ND

Home | Current Version | Previous Version | Graphics & Text | Print | Product List | Glossary On
Versions: 1 2 3 4 5 6 7 8 9 10 11 12 13 14 15 16 17 18 19 20 21 22 23 24 25 26 27 28 29 30 31 32 33 34 35 36 37 38 39 40 41 42 43 44 45 46 47 48 49 50
000
ASUS43 KFGF 130010
RWRFGF
PRAIRIE TO PINES  WEATHER ROUNDUP
NATIONAL WEATHER SERVICE EASTERN NORTH DAKOTA/GRAND FORKS ND
600 PM CST TUE DEC 12 2017

 **SATELLITE DATA USED TO AUGMENT SKY COVER AT AUTOMATED STATIONS**
 *****  WEATHER ACROSS EASTERN NORTH DAKOTA  *****

CITY           SKY/WX    TMP DP  RH WIND       PRES   REMARKS
GRAND FORKS    FAIR      31  28  89 SE10      29.61F WCI  22
6HR MIN TEMP:  28; 6HR MAX TEMP:  35;

GRAND FRKS AFB CLEAR     33  28  81 S8        29.59F
GRAND FRKS NWS   N/A     32 N/A N/A S5          N/A
DEVILS LAKE    FAIR      37  28  70 SW10      29.59F
6HR MIN TEMP:  33; 6HR MAX TEMP:  40;

FARGO          FAIR      34  29  82 S8        29.67F
WAHPETON ARPT  FAIR      32  27  80 S9        29.70F WCI  24
$$

 ***** WEATHER ACROSS CENTRAL AND WESTERN NORTH DAKOTA  *****

CITY           SKY/WX    TMP DP  RH WIND       PRES   REMARKS
BISMARCK       FAIR      47  25  42 SW8       29.70F
6HR MIN TEMP:  42; 6HR MAX TEMP:  53;

MINOT          FAIR      47  22  37 SW16      29.60F
6HR MIN TEMP:  44; 6HR MAX TEMP:  51;

JAMESTOWN      FAIR      37  29  72 SW7       29.65F
6HR MIN TEMP:  35; 6HR MAX TEMP:  42;

MINOT AFB      FAIR      43  24  47 W16       29.58F
GARRISON         N/A     41  22  46 W6        29.64F
WILLISTON      FAIR      47  18  31 W20       29.68F
6HR MIN TEMP:  40; 6HR MAX TEMP:  51;

DICKINSON      FAIR      46  20  35 W16       29.72F
6HR MIN TEMP:  45; 6HR MAX TEMP:  55;

HETTINGER      FAIR      46  19  34 W16       29.81F
6HR MIN TEMP:  45; 6HR MAX TEMP:  59;

$$

 *****  OTHER AIRPORT OBSERVATIONS IN OUR AREA  *****

CITY           SKY/WX    TMP DP  RH WIND       PRES   REMARKS
WALHALLA       FAIR      39  28  65 VRB3      29.53F
GRAFTON AIRPOR FAIR      27  28 100 SE9       29.61F WCI  17
VALLEY CITY AR FAIR      34  34 100 SW8       29.67F
CANDO          FAIR      39  27  60 W16       29.58F
CAVALIER APRT  FAIR      27  27 100 SE5       29.56F WCI  21
GWINNER          N/A     37  28  70 SW15      29.69F
SHEYENNE NWR     N/A     35  29  79 SW7       29.95S
ROLLA          FAIR      41  25  52 W21G28    29.53F
 ***** THE ABOVE OBSERVATIONS ARE NON NWS ARE NOT QUALITY
       CONTROLLED AND MAY MIS-REPORT RAIN FOR SNOW...
$$

  *****  WEATHER ACROSS NORTHERN MINNESOTA  *****

CITY           SKY/WX    TMP DP  RH WIND       PRES   REMARKS
FLAG ISLAND    CLOUDY    14  10  85 SE9G16    29.67F WCI   2
WARROAD        CLOUDY    16  12  86 SE9       29.66F WCI   4
ROSEAU         CLOUDY    19  16  86 SE9       29.65F WCI   9
HALLOCK        FAIR      27  25  93 S14       29.59F WCI  15
THF RVR FALLS  FAIR      28  26  92 S9        29.65F WCI  19
6HR MIN TEMP:  23; 6HR MAX TEMP:  30;

BAUDETTE       CLOUDY    16  12  84 SE13      29.69F WCI   2
6HR MIN TEMP:  14; 6HR MAX TEMP:  16; 6HR PCP: TRACE;

WASKISH        CLOUDY    16  14  93 SE9       29.71F WCI   4
CROOKSTON      FAIR      28  27  93 S12       29.66F WCI  18
STEPHEN NDAWN    N/A     28  27  93 S13         N/A  WCI  18
GREENBUSH NDAW   N/A     23  21  93 SE7         N/A  WCI  15
$$
  *****  WEATHER ACROSS CENTRAL AND WEST MINNESOTA  *****

CITY           SKY/WX    TMP DP  RH WIND       PRES   REMARKS
FOSSTON        CLOUDY    27  25  93 S10       29.67F WCI  17
BEMIDJI        CLOUDY    17  14  89 SE9       29.71F WCI   6
6HR MIN TEMP:  15; 6HR MAX TEMP:  18;

PARK RAPIDS    CLOUDY    23  19  85 SE10      29.71F WCI  12
6HR MIN TEMP:  16; 6HR MAX TEMP:  23;

ELBOW LAKE     FAIR      26  24  93 S8        29.72F WCI  17
6HR MIN TEMP:  26; 6HR MAX TEMP:  39;

WADENA         MOCLDY    27  23  86 SE7       29.72F WCI  19
DETROIT LAKES  FAIR      30  28  93 SE6       29.69F WCI  24
MOORHEAD       FAIR      34  28  80 CALM      29.69F
FERGUS FALLS   FAIR      30  27  86 S6        29.74F WCI  24
MORRIS MN      FAIR      30  25  80 S8        29.74F WCI  23
STAPLES        CLOUDY    23  19  86 SE5       29.75F WCI  17
$$
  *****  WEATHER ELSEWHERE ACROSS MINNESOTA  *****

CITY           SKY/WX    TMP DP  RH WIND       PRES   REMARKS
DULUTH         LGT SNOW  11   8  88 S7        29.82F FOG     WCI   0
6HR MIN TEMP:   8; 6HR MAX TEMP:  11;

INTRNTL FALLS  LGT SNOW  11   7  84 SE10      29.75F VSB 1   WCI  -3
6HR MIN TEMP:   9; 6HR MAX TEMP:  12; 6HR PCP:  0.03;

ELY            LGT SNOW   9   3  78 SE6       29.81F WCI  -1
CLOQUET        LGT SNOW  12   9  85 S5        29.83F WCI   4
WHEATON        FAIR      36  27  69 S9        29.74F
BRAINERD       CLOUDY    18  13  80 S8        29.79F WCI   8
6HR MIN TEMP:  13; 6HR MAX TEMP:  18; 6HR PCP: TRACE;

HIBBING        LGT SNOW  11   8  88 SE7       29.80F FOG     WCI   0
6HR MIN TEMP:   6; 6HR MAX TEMP:  11; 6HR PCP: TRACE;

ALEXANDRIA     MOCLDY    30  27  88 S7        29.74F WCI  23
6HR MIN TEMP:  22; 6HR MAX TEMP:  34;

SAINT CLOUD    MOCLDY    19  15  84 SE5       29.83F WCI  12
6HR MIN TEMP:  16; 6HR MAX TEMP:  21; 6HR PCP:  0.01;

MINNEAPOLIS    MOCLDY    20  14  77 SE7       29.87F WCI  11
6HR MIN TEMP:  15; 6HR MAX TEMP:  21; 6HR PCP: TRACE;

$$

  *****  WEATHER ACROSS SOUTH DAKOTA  *****

CITY           SKY/WX    TMP DP  RH WIND       PRES   REMARKS
SIOUX FALLS    FAIR      38  29  70 SW6       29.86F
6HR MIN TEMP:  31; 6HR MAX TEMP:  42;

BROOKINGS      FAIR      33  27  78 S10       29.82F WCI  25
WATERTOWN      FAIR      32  28  85 S10       29.77F WCI  24
6HR MIN TEMP:  31; 6HR MAX TEMP:  41;

HURON          FAIR      40  24  53 S9        29.81F
6HR MIN TEMP:  40; 6HR MAX TEMP:  48;

SISSETON         N/A     41  28  60 SW21G31   29.68F
ABERDEEN       FAIR      31  24  75 S9        29.75F WCI  23
6HR MIN TEMP:  30; 6HR MAX TEMP:  47;

MITCHELL       FAIR      40  29  64 SW9       29.84F
PIERRE         FAIR      46  27  47 W10       29.80F
6HR MIN TEMP:  37; 6HR MAX TEMP:  55;

MOBRIDGE       FAIR      42  28  57 SE6       29.73F
RAPID CITY     FAIR      48  16  27 SW5       29.90F
6HR MIN TEMP:  45; 6HR MAX TEMP:  61;

$$

  *****  SOME WEATHER IN NEARBY STATES *****

CITY           SKY/WX    TMP DP  RH WIND       PRES   REMARKS
GLASGOW MT     FAIR      53  16  23 NW30G38   29.86R
6HR MIN TEMP:  36; 6HR MAX TEMP:  55;

GREAT FALLS MT CLOUDY    48   5  17 SW23      30.14F
6HR MIN TEMP:  47; 6HR MAX TEMP:  56;

CHEYENNE WY    FAIR      48  11  22 W15       30.18S
6HR MIN TEMP:  48; 6HR MAX TEMP:  61;

SCOTTSBLUFF NE FAIR      52  15  23 W10       30.05F
6HR MIN TEMP:  50; 6HR MAX TEMP:  65;

OMAHA NE       FAIR      37  25  61 S10       30.00F
6HR MIN TEMP:  31; 6HR MAX TEMP:  41;

DES MOINES IA  FAIR      30  19  63 SW9       30.02F WCI  22
6HR MIN TEMP:  26; 6HR MAX TEMP:  33;

DAVENPORT IA   CLOUDY    26   6  42 W8        30.07F WCI  18
6HR MIN TEMP:  23; 6HR MAX TEMP:  27;

CHICAGO IL     FAIR      19   7  59 W7        30.01F WCI  10
6HR MIN TEMP:  18; 6HR MAX TEMP:  22;

EAU CLAIRE WI  CLOUDY    15   6  67 S5        29.94F WCI   8
6HR MIN TEMP:  11; 6HR MAX TEMP:  15; 6HR PCP: TRACE;

LA CROSSE WI   CLOUDY    21   6  52 S5        29.99F WCI  15
6HR MIN TEMP:  19; 6HR MAX TEMP:  22;

$$

  *****  SOME NATIONAL WEATHER *****

CITY           SKY/WX    TMP DP  RH WIND       PRES   REMARKS
LA GUARDIA NY  MOCLDY    42  32  67 NW17G26   29.44S
6HR MIN TEMP:  42; 6HR MAX TEMP:  48; 6HR PCP: TRACE;

RALEIGH NC     LGT RAIN  41  29  62 N8G23     29.71R
6HR MIN TEMP:  41; 6HR MAX TEMP:  53; 6HR PCP: TRACE;

ATLANTA GA     FAIR      43  28  55 W12       29.94R
6HR MIN TEMP:  43; 6HR MAX TEMP:  49;

NEW ORLEANS LA FAIR      54  43  66 NW6       30.15R
6HR MIN TEMP:  54; 6HR MAX TEMP:  63;

OKLAHOMA CITY  FAIR      39  25  57 S7        30.21F
6HR MIN TEMP:  39; 6HR MAX TEMP:  49;

ALBUQUERQUE NM FAIR      50   3  14 S7        30.32F
6HR MIN TEMP:  43; 6HR MAX TEMP:  54;

SALT LAKE CITY FOG       26  25  96 VRB5      30.46F VSB 1/4 WCI  20
6HR MIN TEMP:  24; 6HR M



USA.gov is the U.S. government's official web portal to all federal, state and local government web resources and services.